Location: Devore Heights
(34.2372°N, 117.4156°W)
Time: 19:06:58
(UTC+00:00)

deb Explorer IX - Pass Details

Date: 16 September 2024
Orbit: 502 x 816 km, 38.7° (Epoch: 15 October)

Event Time Altitude Azimuth Distance (km) Brightness Sun altitude
Rises 08:00:36 0° 290° (WNW) 3,358 - -53.2°
Reaches altitude 10° 08:03:13 10° 288° (WNW) 2,388 - -53.1°
Maximum altitude 08:08:50 69° 206° (SSW) 808 - -52.9°
Drops below altitude 10° 08:13:56 10° 123° (ESE) 2,168 - -52.7°
Sets 08:16:13 0° 121° (ESE) 3,026 - -52.6°
